Temp
98 96 97 99 98 90 86 86 83 81 86 85 84 85 86 83 84 89 90 86 89 86 83 85 84 86 84 82 82 84 80 77 77 82 80 72 77 81 83 87 86 87 90
95 94 95 97 98 88 84 84 84 81 81 80 80 84 86 84 87 88 87 90 89 88 88 85 85 86 85 85 85 82 78 79 74 77 74 67 72 79 84 85 90 89 89
95 93 94 96 97 88 85 82 84 83 81 81 81 82 82 83 84 84 86 88 88 87 84 87 84 85 85 83 83 82 81 77 77 78 79 71 70 70 72 73 86 78 87
97 95 96 95 96 96 90 85 82 84 84 82 82 79 81 82 85 85 87 87 86 85 85 85 85 83 83 82 82 83 83 79 78 76 86 84 80 70 65 72 76 76 74
99 100 99 97 98 97 97 92 85 84 83 82 82 83 82 85 86 86 84 85 86 87 88 85 82 82 85 84 83 84 84 83 81 79 79 81 82 82 73 70 68 72 72
96 98 100 94 99 99 97 96 87 85 86 84 81 79 81 82 80 82 79 83 86 85 84 87 84 82 83 81 82 83 84 82 82 82 81 81 80 78 78 76 71 70 71
93 95 95 95 91 93 95 95 88 85 86 85 85 83 82 82 81 79 79 80 80 79 82 83 83 82 81 81 80 80 81 81 81 81 81 82 81 82 81 78 77 75 74
91 91 92 93 89 89 91 90 91 86 87 83 82 83 85 85 84 82 81 82 81 83 84 84 85 83 82 83 81 82 82 82 81 80 80 81 82 84 82 80 79 75 77
86 87 89 89 87 88 82 79 79 84 89 89 82 81 83 84 84 83 82 83 83 86 84 85 83 83 82 81 81 78 81 82 81 80 79 79 81 84 84 83 82 78 74
86 86 86 87 87 88 87 84 81 76 75 76 77 80 82 83 84 82 81 82 82 82 83 83 83 79 81 81 80 80 82 80 82 82 79 78 80 83 84 84 82 81 78
85 85 85 86 86 86 86 84 83 79 74 74 75 77 76 75 80 81 82 82 81 81 81 81 81 81 81 81 79 79 80 79 79 80 79 78 79 80 82 80 81 78 78
85 86 85 83 84 83 84 85 83 82 79 75 75 75 77 75 74 78 79 79 80 80 80 79 79 80 81 80 80 80 80 78 78 80 77 79 81 77 77 79 78 78 77
83 84 84 82 81 81 80 81 82 82 82 80 78 76 77 79 77 77 78 80 79 81 80 79 78 79 79 79 79 79 80 80 80 79 79 79 78 77 77 77 78 78 78
83 83 82 80 79 79 78 78 79 80 80 81 80 78 78 78 77 72 75 74 76 76 77 77 79 79 79 79 80 80 79 79 80 80 80 79 79 78 77 75 75 74 71
82 80 79 78 77 77 77 77 78 77 79 78 78 78 78 79 79 79 78 76 77 77 79 79 80 79 80 84 80 79 80 79 79 80 80 81 81 77 77 76 76 73 70
78 78 77 77 76 76 75 76 76 76 77 75 75 76 77 78 78 77 77 77 79 79 79 79 79 78 82 77 71 77 81 79 78 79 79 80 76 77 73 72 73 75 72
76 76 76 76 75 75 74 74 72 72 71 72 74 74 75 75 76 76 76 75 76 76 78 78 79 78 79 72 72 73 78 80 80 79 78 79 84 77 79 72 70 70 71
76 75 75 75 75 76 75 74 73 71 70 70 71 70 71 72 73 74 75 75 76 75 75 75 76 77 80 71 68 71 76 78 80 81 80 79 79 79 78 78 75 75 76
76 75 76 76 75 74 72 70 70 67 68 68 68 67 67 68 70 70 71 72 73 75 76 76 76 77 77 70 66 68 77 78 78 81 81 81 80 76 71 78 76 76 77
78 76 76 77 75 73 71 68 65 64 64 65 66 68 67 67 67 68 68 72 73 73 77 76 77 74 76 70 66 67 77 76 77 79 81 73 77 71 67 75 78 75 77
77 76 74 72 71 70 68 64 63 63 65 65 64 65 66 66 66 67 69 70 71 72 73 75 76 77 75 76 66 64 75 76 73 73 79 83 68 66 63 67 79 77 79
76 75 72 69 69 68 66 63 62 64 64 63 62 62 63 65 66 65 66 68 70 70 71 72 74 78 76 68 67 60 60 65 68 69 73 74 61 59 62 64 70 67 70
73 73 70 68 67 66 64 60 60 62 62 61 59 60 62 64 64 64 66 68 69 69 70 74 75 77 76 78 61 59 60 59 64 70 67 60 59 59 59 60 66 66 75
71 72 68 64 63 63 62 61 61 61 59 58 58 60 61 60 64 68 69 68 70 70 68 69 65 64 71 77 76 75 75 68 67 66 68 65 63 63 66 66 65 74 78
71 69 65 62 60 61 60 61 60 59 57 57 57 58 61 63 66 66 66 66 69 66 69 71 72 66 72 74 62 60 69 69 64 60 69 68 68 68 70 72 70 70 74
68 67 64 61 60 60 59 60 59 58 56 55 56 57 59 64 67 65 67 63 57 56 54 52 56 72 64 53 50 50 48 48 51 65 66 67 68 67 67 70 72 71 71
MSLP
1004.89 1006.07 1006.87 1007.86 1008.57 1009.98 1010.89 1011.50 1012.30 1012.80 1013.27 1013.78 1014.06 1014.15 1014.00 1014.01 1013.88 1013.74 1013.86 1014.34 1014.38 1014.68 1015.03 1015.18 1015.32 1015.33 1015.26 1015.40 1015.35 1015.59 1016.07 1016.28 1016.00 1015.37 1015.81 1016.31 1016.09 1015.18 1015.20 1014.69 1014.50 1014.65 1014.76
1003.19 1004.53 1005.43 1006.51 1007.83 1009.56 1010.59 1011.40 1011.95 1012.56 1013.07 1013.66 1014.06 1013.98 1013.70 1013.68 1013.70 1013.67 1013.84 1013.86 1014.07 1014.30 1014.43 1014.73 1014.98 1015.01 1015.06 1015.04 1014.94 1015.07 1015.97 1016.26 1016.09 1015.92 1016.11 1016.22 1015.97 1015.36 1015.41 1015.10 1014.46 1014.37 1014.23
1003.24 1003.56 1005.55 1005.32 1007.14 1008.77 1009.98 1010.99 1011.79 1012.42 1013.08 1013.61 1014.06 1014.07 1013.86 1013.59 1013.63 1013.77 1014.00 1013.92 1013.97 1014.18 1014.41 1014.46 1014.78 1014.87 1014.98 1014.86 1014.86 1014.85 1015.14 1015.81 1015.86 1015.83 1015.30 1015.27 1015.85 1016.69 1016.34 1016.15 1015.17 1015.03 1014.20
1003.68 1003.50 1004.40 1004.21 1006.29 1007.55 1009.14 1010.29 1011.45 1012.21 1012.94 1013.50 1013.74 1013.89 1013.72 1013.47 1013.31 1013.55 1013.58 1013.66 1013.83 1014.05 1014.19 1014.20 1014.41 1014.81 1014.97 1014.89 1014.78 1014.58 1014.44 1014.75 1015.10 1014.91 1014.50 1014.15 1015.05 1016.55 1017.59 1016.73 1016.05 1015.93 1016.07
1002.65 1002.17 1001.81 1003.44 1003.50 1006.69 1008.07 1009.34 1010.74 1011.65 1012.53 1013.27 1013.56 1013.63 1013.46 1013.31 1013.30 1013.33 1013.37 1013.40 1013.62 1013.55 1013.52 1013.91 1014.13 1014.57 1014.69 1014.46 1014.32 1014.22 1014.10 1014.18 1014.31 1014.45 1014.14 1014.02 1014.09 1014.64 1015.88 1016.85 1016.55 1016.05 1016.07
1004.20 1003.80 1002.91 1004.36 1003.47 1006.05 1007.51 1008.60 1009.91 1010.93 1011.74 1012.50 1013.12 1013.39 1013.31 1013.31 1013.43 1013.39 1013.60 1013.58 1013.44 1013.50 1013.48 1013.38 1013.68 1014.05 1014.43 1014.43 1014.39 1014.09 1014.02 1014.11 1014.10 1014.09 1014.14 1013.79 1013.82 1013.82 1014.14 1014.95 1015.19 1015.76 1016.37
1005.57 1005.17 1005.14 1005.28 1006.12 1006.47 1007.33 1008.29 1009.43 1010.54 1011.30 1011.98 1012.40 1012.81 1012.92 1013.12 1013.23 1013.46 1013.57 1013.41 1013.43 1013.42 1013.01 1013.17 1013.77 1014.04 1014.30 1014.41 1014.54 1014.43 1014.34 1014.34 1014.33 1014.30 1014.09 1013.59 1013.36 1013.36 1013.28 1013.87 1014.16 1014.98 1015.97
1007.15 1007.23 1007.21 1007.24 1007.89 1008.33 1008.46 1008.64 1009.25 1010.21 1010.87 1011.53 1012.05 1012.28 1012.35 1012.59 1012.80 1012.99 1013.09 1013.18 1013.10 1012.95 1012.70 1013.12 1013.22 1013.58 1013.79 1014.06 1014.22 1014.34 1014.40 1014.34 1014.35 1014.44 1014.36 1014.02 1013.58 1013.35 1013.15 1013.03 1013.60 1014.26 1014.63
1008.59 1008.69 1008.76 1008.94 1009.35 1009.72 1010.44 1010.65 1010.72 1010.66 1010.92 1010.84 1011.27 1011.84 1012.00 1012.22 1012.43 1012.44 1012.57 1012.70 1012.79 1012.62 1012.49 1012.69 1012.85 1013.26 1013.61 1013.60 1013.86 1014.09 1013.96 1013.94 1013.93 1014.06 1014.25 1014.22 1013.95 1013.65 1013.24 1013.06 1013.21 1013.75 1014.14
1009.43 1009.75 1009.97 1010.15 1010.38 1010.57 1010.99 1011.34 1011.67 1012.15 1012.32 1012.29 1012.48 1012.24 1011.72 1011.79 1011.79 1012.11 1012.34 1012.39 1012.43 1012.28 1012.27 1012.37 1012.56 1012.77 1013.02 1013.17 1013.34 1013.63 1013.72 1013.84 1013.90 1013.90 1013.92 1014.03 1014.07 1013.77 1013.32 1013.02 1012.89 1013.11 1013.34
1009.93 1010.30 1010.70 1010.85 1011.21 1011.55 1011.74 1011.89 1012.12 1012.30 1012.54 1012.65 1012.57 1012.60 1012.41 1012.38 1012.10 1011.78 1011.79 1011.77 1011.96 1012.12 1012.19 1012.20 1012.39 1012.45 1012.64 1012.74 1012.83 1012.80 1012.98 1013.20 1013.39 1013.60 1013.56 1013.63 1013.77 1013.69 1013.38 1013.04 1012.80 1012.93 1013.22
1010.56 1010.66 1011.15 1011.79 1011.96 1012.30 1012.42 1012.34 1012.64 1012.64 1012.69 1012.84 1012.64 1012.49 1012.24 1012.30 1012.53 1011.93 1011.93 1011.79 1011.88 1011.94 1012.03 1012.19 1012.27 1012.14 1012.32 1012.33 1012.49 1012.59 1012.40 1012.45 1012.65 1012.65 1012.89 1012.97 1013.16 1013.26 1013.15 1013.03 1013.05 1013.01 1013.05
1011.10 1011.21 1011.51 1012.10 1012.68 1012.93 1013.11 1013.17 1013.09 1012.87 1012.64 1012.72 1012.58 1012.31 1012.02 1012.04 1012.34 1012.35 1012.33 1012.11 1011.95 1011.89 1011.76 1011.71 1011.82 1011.83 1011.84 1012.06 1012.06 1012.09 1012.09 1011.98 1011.93 1012.09 1012.17 1012.27 1012.39 1012.87 1012.79 1012.86 1012.80 1012.82 1013.08
1011.11 1011.45 1012.01 1012.63 1013.11 1013.30 1013.37 1013.49 1013.46 1013.29 1012.93 1012.66 1012.50 1012.26 1012.06 1011.86 1011.87 1012.04 1011.89 1011.99 1011.86 1011.75 1011.54 1011.40 1011.20 1011.12 1011.16 1011.29 1011.28 1011.35 1011.40 1011.55 1011.50 1011.40 1011.47 1011.53 1011.75 1012.02 1012.27 1012.39 1012.54 1012.60 1012.91
1011.45 1011.96 1012.64 1013.23 1013.52 1013.61 1013.76 1013.86 1013.79 1013.60 1013.25 1013.03 1012.79 1012.42 1012.15 1011.79 1011.60 1011.42 1011.48 1011.43 1011.31 1011.16 1011.13 1010.92 1010.74 1010.65 1010.59 1010.41 1010.33 1010.41 1010.38 1010.50 1010.66 1010.74 1010.80 1010.80 1010.88 1011.06 1011.18 1011.63 1011.92 1012.27 1012.59
1012.26 1012.77 1013.16 1013.50 1013.69 1013.84 1013.95 1013.97 1013.86 1013.75 1013.48 1013.43 1013.19 1012.73 1012.20 1011.78 1011.52 1011.50 1011.41 1011.27 1011.03 1010.79 1010.70 1010.59 1010.53 1010.48 1010.31 1009.94 1009.86 1010.01 1009.79 1009.72 1009.79 1009.87 1009.89 1010.10 1010.22 1010.29 1010.56 1010.82 1011.15 1011.49 1011.79
1012.85 1013.19 1013.49 1013.68 1013.84 1014.08 1014.27 1014.26 1014.46 1014.43 1014.21 1013.85 1013.35 1012.92 1012.51 1012.00 1011.56 1011.38 1011.25 1011.10 1010.91 1010.70 1010.39 1010.21 1010.01 1009.87 1009.70 1009.63 1009.72 1009.59 1009.69 1009.37 1008.99 1009.04 1009.12 1009.22 1009.41 1009.49 1009.75 1009.99 1010.24 1010.76 1010.83
1013.10 1013.44 1013.73 1013.95 1014.12 1014.27 1014.37 1014.40 1014.53 1014.57 1014.43 1014.07 1013.71 1013.51 1013.02 1012.52 1012.08 1011.61 1011.16 1010.85 1010.66 1010.53 1010.35 1010.08 1009.90 1009.52 1009.11 1008.94 1008.91 1009.05 1009.04 1008.86 1008.50 1008.27 1008.25 1008.32 1008.39 1008.49 1008.87 1009.14 1009.39 1009.63 1009.88
1013.43 1013.89 1014.04 1014.08 1014.20 1014.33 1014.62 1014.80 1014.81 1014.80 1014.63 1014.20 1013.95 1013.90 1013.67 1013.15 1012.61 1012.02 1011.61 1011.21 1010.79 1010.31 1009.80 1009.44 1009.34 1009.11 1008.77 1008.50 1008.40 1008.55 1008.45 1008.10 1007.73 1007.55 1007.45 1007.33 1007.38 1007.36 1007.77 1008.16 1008.43 1008.60 1008.50
1013.54 1013.85 1014.16 1014.21 1014.37 1014.62 1015.00 1015.19 1015.24 1015.12 1014.91 1014.64 1014.25 1013.96 1013.72 1013.34 1012.87 1012.39 1011.81 1011.18 1010.73 1010.14 1009.48 1009.01 1008.70 1008.55 1008.29 1007.94 1007.77 1007.87 1007.88 1007.61 1007.31 1006.89 1006.57 1006.50 1006.58 1006.73 1006.84 1007.30 1007.44 1007.64 1007.37
1013.67 1014.14 1014.44 1014.61 1014.95 1015.23 1015.37 1015.44 1015.51 1015.26 1015.12 1014.78 1014.45 1014.11 1013.74 1013.28 1012.72 1012.11 1011.47 1010.87 1010.39 1009.86 1009.31 1008.74 1008.26 1007.88 1007.54 1007.40 1007.32 1007.33 1007.47 1007.24 1007.05 1006.63 1006.00 1005.37 1005.27 1005.70 1006.10 1006.26 1006.33 1006.06 1006.57
1013.69 1014.17 1014.62 1015.17 1015.53 1015.72 1015.79 1015.73 1015.53 1015.37 1015.23 1014.85 1014.53 1014.32 1013.65 1013.03 1012.45 1011.84 1011.10 1010.49 1009.99 1009.50 1008.84 1008.17 1007.57 1006.98 1006.70 1006.61 1006.59 1006.61 1006.89 1007.27 1007.26 1006.75 1006.06 1005.41 1005.55 1005.67 1005.13 1005.39 1005.25 1005.31 1005.65
1014.22 1014.68 1015.18 1015.48 1015.98 1016.25 1016.28 1016.03 1015.83 1015.50 1015.07 1014.71 1014.46 1014.12 1013.41 1012.51 1011.83 1011.27 1010.50 1009.90 1009.26 1008.80 1008.30 1007.41 1006.88 1006.33 1005.97 1005.89 1006.36 1006.78 1006.71 1006.55 1006.63 1006.39 1006.06 1005.68 1005.34 1005.30 1004.99 1005.13 1004.57 1004.54 1004.88
1014.66 1015.02 1015.69 1016.03 1016.33 1016.54 1016.58 1016.37 1016.07 1015.71 1015.37 1014.89 1014.36 1013.71 1013.02 1012.20 1011.21 1010.39 1009.71 1009.02 1008.48 1007.91 1007.43 1007.33 1007.02 1006.69 1006.62 1005.78 1005.75 1006.33 1006.26 1006.04 1006.07 1005.93 1005.77 1005.43 1005.03 1004.68 1004.27 1004.28 1004.34 1003.88 1003.42
1014.99 1015.50 1016.11 1016.43 1016.59 1016.71 1016.70 1016.46 1016.20 1015.91 1015.34 1014.83 1014.29 1013.66 1012.92 1011.82 1010.56 1009.58 1009.16 1008.61 1008.02 1007.68 1007.60 1007.22 1006.97 1006.69 1006.47 1005.99 1006.14 1006.64 1006.49 1006.57 1006.32 1005.95 1005.39 1004.97 1004.47 1004.01 1003.42 1003.23 1003.21 1003.22 1002.58
1015.45 1015.66 1016.27 1016.62 1016.67 1016.67 1016.60 1016.43 1016.17 1015.81 1015.35 1014.71 1014.07 1013.46 1012.82 1011.60 1010.45 1009.59 1008.71 1007.95 1007.48 1006.94 1006.60 1006.51 1006.88 1006.18 1006.02 1005.70 1006.30 1006.58 1006.73 1006.67 1006.51 1005.53 1005.16 1004.56 1003.94 1003.53 1003.36 1002.58 1001.89 1001.79 1001.87
Wind_Speed
16 16 12 12 14 15 11 6 10 7 4 3 5 6 4 3 2 3 5 10 4 5 6 3 2 4 5 6 7 2 2 5 8 1 4 4 8 7 6 7 6 6 8
21 21 16 18 16 17 13 10 8 10 5 6 3 4 2 4 3 2 2 4 5 6 4 5 5 3 3 2 4 4 2 3 4 2 3 1 2 4 4 5 7 10 7
21 22 19 15 14 19 16 14 11 10 10 7 4 4 4 2 3 2 3 5 5 5 6 3 4 3 3 4 4 3 5 1 3 6 2 2 0 1 3 12 9 7 1
2 15 22 19 17 11 18 16 14 11 10 10 7 9 7 6 5 5 5 6 9 8 8 6 6 5 4 5 5 3 3 3 2 1 5 4 6 4 3 10 7 6 11
5 6 13 16 21 15 11 14 15 13 11 11 9 7 8 6 5 3 5 5 4 6 5 6 6 5 6 6 5 4 4 2 4 2 5 3 2 5 5 3 5 4 6
8 3 13 18 13 14 12 11 14 12 12 11 11 11 8 9 5 6 3 4 6 7 9 10 7 6 7 6 5 7 4 4 4 5 5 6 1 3 0 2 3 4 3
15 14 13 15 12 5 11 8 13 11 10 11 10 12 12 8 7 6 4 6 4 4 6 8 5 5 6 6 6 6 5 4 4 4 4 5 4 3 3 3 2 3 4
15 13 13 13 17 19 11 6 9 11 10 9 9 8 10 8 8 8 6 7 4 5 2 7 9 8 7 7 6 5 6 6 5 6 6 6 7 5 4 1 2 1 2
14 14 13 15 13 13 15 18 18 8 3 8 10 9 10 10 9 8 7 6 9 8 7 6 7 7 8 8 7 7 8 6 6 7 7 5 6 7 6 5 2 4 2
13 12 12 13 12 11 11 12 13 11 9 10 10 6 9 11 10 9 9 7 7 8 7 8 6 7 10 9 9 7 8 7 7 7 7 6 6 8 7 7 3 2 3
10 11 11 11 11 11 12 12 12 8 8 7 7 7 6 7 8 11 10 10 8 8 8 7 9 9 10 10 9 10 7 7 11 10 8 9 8 7 7 5 3 3 4
9 9 10 10 11 11 12 11 9 10 7 5 6 5 5 5 6 5 6 5 4 5 6 8 9 11 10 10 10 11 12 11 12 12 13 10 6 8 7 7 5 3 2
7 8 9 8 9 9 8 10 10 10 8 6 7 5 3 5 2 4 5 3 3 2 3 4 6 7 9 10 10 11 12 13 11 13 11 13 12 9 7 8 8 4 2
4 6 6 9 8 8 8 8 10 10 10 9 10 6 7 8 5 5 5 6 6 6 6 7 7 7 9 9 10 10 11 12 13 13 12 11 11 12 11 10 9 5 4
8 11 9 7 8 8 8 9 9 10 11 10 11 10 10 8 8 5 5 6 6 6 7 7 8 8 8 8 10 12 12 12 13 13 13 13 14 15 13 9 9 8 6
10 9 9 9 9 8 9 9 10 10 9 9 11 12 11 10 8 7 8 8 8 7 7 8 9 10 9 13 8 10 9 11 12 11 11 12 12 15 15 15 14 13 11
8 9 10 8 7 9 10 10 10 11 11 12 11 11 12 12 9 8 7 8 9 9 8 9 8 9 10 12 14 13 8 10 11 11 12 10 11 14 13 16 17 17 15
9 9 9 8 8 8 9 8 8 9 10 11 10 13 14 13 13 12 9 9 8 9 9 10 10 10 9 11 11 13 10 10 14 13 13 11 13 12 13 12 11 14 16
8 8 9 10 9 8 10 11 10 9 12 10 9 10 12 14 13 12 12 12 10 10 9 9 9 10 11 12 9 6 8 11 13 13 14 14 14 15 16 13 13 13 13
6 7 10 10 10 9 10 11 11 10 10 12 13 12 12 12 12 12 13 12 11 11 10 10 8 10 12 13 12 7 5 9 9 12 14 15 17 14 16 15 13 13 14
8 8 9 9 11 11 12 10 10 11 11 10 11 12 12 12 13 14 12 12 12 11 12 12 10 12 12 12 13 10 6 6 7 8 10 11 16 19 15 17 13 15 11
8 9 9 10 10 10 10 11 11 11 12 12 12 12 14 9 10 14 14 13 12 12 12 12 12 10 11 10 10 7 8 4 5 9 10 11 7 10 17 16 17 15 12
9 9 9 10 11 11 10 10 11 12 13 14 14 12 14 12 11 13 13 11 12 10 11 11 10 7 3 2 9 8 8 8 4 5 9 16 15 10 8 16 17 16 10
7 8 9 10 10 8 9 8 10 10 11 12 13 14 12 14 14 10 10 10 10 11 10 7 3 4 10 3 3 3 5 6 4 5 7 9 12 13 8 7 9 12 13
7 8 8 9 9 9 11 11 10 10 11 11 11 11 11 13 12 9 7 8 9 8 8 9 6 2 8 3 3 2 4 6 5 5 7 7 6 7 7 9 9 11 12
8 6 7 8 9 9 10 10 10 10 10 11 9 8 10 11 11 10 9 11 11 15 12 13 9 8 8 10 8 8 6 6 8 3 7 8 6 7 6 10 10 12 14
Wind_Direction
165 159 173 174 159 145 162 173 161 164 178 152 190 222 213 238 261 211 218 176 176 186 201 240 225 202 241 184 197 285 21 317 359 333 112 31 319 268 219 207 206 165 219
166 164 168 173 182 159 169 178 174 167 171 166 211 250 232 206 213 165 226 179 188 205 238 204 263 324 337 283 210 231 244 158 6 235 100 224 208 305 347 273 210 206 210
171 162 172 174 186 159 168 176 195 171 181 173 213 265 289 198 186 245 200 204 208 201 232 238 229 292 307 291 267 295 261 339 228 230 250 202 88 340 355 329 303 25 3
254 199 167 169 185 189 166 169 179 193 183 205 197 205 227 243 217 196 236 200 201 209 227 197 221 247 270 312 284 200 295 159 268 75 269 199 138 127 79 307 290 57 24
236 209 226 176 163 179 184 164 172 182 187 196 227 242 220 240 239 275 246 217 202 233 224 205 205 212 237 253 286 300 309 319 304 342 314 322 189 170 165 166 288 43 38
52 348 338 175 151 163 178 178 166 178 186 182 203 232 257 227 243 229 268 247 220 213 215 212 203 211 237 263 253 261 240 264 295 311 308 300 311 259 262 153 195 140 253
44 54 42 28 29 128 167 177 157 173 186 205 223 213 234 250 251 253 253 261 260 283 220 209 200 213 225 249 262 287 285 301 296 278 289 298 307 279 208 143 263 133 169
68 58 45 55 32 17 18 152 149 165 180 195 217 240 233 232 234 233 217 244 255 252 255 197 211 214 217 224 238 244 237 242 252 264 275 291 308 317 317 214 220 4 170
68 54 47 36 41 42 43 43 32 28 199 217 195 211 230 232 251 253 238 218 241 244 244 234 198 216 233 218 230 233 251 244 224 231 249 266 282 293 302 309 231 170 205
77 70 60 53 33 35 34 48 43 34 23 23 23 341 249 231 230 237 246 252 247 257 263 232 208 218 219 223 220 224 241 243 244 243 243 241 254 272 270 273 300 301 202
73 71 53 43 56 29 22 17 18 29 27 5 345 348 18 3 300 256 235 237 241 255 266 259 246 236 233 233 240 232 235 234 240 241 251 232 237 254 276 327 3 357 358
68 65 71 43 28 26 10 20 13 3 11 339 316 318 336 344 7 0 22 17 331 302 290 282 279 275 264 253 246 248 240 230 233 235 236 234 226 247 261 261 276 302 11
47 53 33 51 26 9 14 360 351 357 346 336 336 308 273 304 337 345 327 353 316 303 267 271 271 270 263 262 262 253 250 250 244 242 238 240 238 228 230 246 256 254 283
88 69 30 31 15 354 357 353 339 346 334 344 332 322 335 329 249 260 265 267 273 266 263 265 262 240 241 247 248 247 246 245 246 243 241 234 228 231 231 228 229 226 253
8 32 23 7 349 346 359 337 337 331 329 336 331 325 329 310 311 292 269 249 253 272 282 279 273 261 255 246 231 236 238 241 242 243 242 236 229 224 226 229 219 205 207
17 5 354 346 338 344 331 331 326 338 329 325 322 316 313 305 304 307 301 295 288 283 274 270 273 279 280 288 303 261 251 239 247 243 242 244 233 222 216 220 218 204 208
356 348 341 337 347 348 341 331 349 340 333 332 317 308 316 316 309 299 299 295 295 301 296 292 274 268 266 250 267 283 274 271 255 246 248 235 238 217 222 220 218 223 217
355 356 351 350 339 334 321 342 338 334 322 319 340 350 343 336 329 324 316 304 297 286 286 287 291 282 279 262 256 262 272 270 269 256 249 236 235 238 213 218 210 223 228
11 355 337 337 335 357 359 342 343 344 322 320 332 339 337 333 329 325 322 319 313 306 295 285 283 291 294 289 269 262 269 268 263 259 251 247 234 228 206 206 218 225 225
9 356 344 331 339 357 344 340 329 328 329 337 331 327 322 315 312 313 310 307 302 293 289 289 277 272 275 278 270 251 263 281 281 265 255 239 243 231 206 207 209 220 230
358 4 347 348 354 347 345 330 328 329 331 325 321 319 314 315 311 301 291 297 293 293 288 283 276 272 271 274 272 249 251 267 284 278 276 258 218 221 212 207 213 223 218
0 2 1 354 347 348 340 331 329 325 327 325 319 315 306 298 294 291 288 285 281 279 276 268 264 259 261 253 268 243 213 292 287 289 286 271 356 282 229 200 218 213 200
11 6 353 350 352 350 341 332 334 329 326 322 317 308 303 296 286 283 279 278 268 259 264 267 275 271 223 273 221 229 230 221 209 254 285 304 294 288 267 239 219 204 212
357 4 355 351 344 347 337 334 326 326 323 319 317 316 309 305 295 284 283 275 257 256 264 282 308 328 276 294 353 341 328 305 246 246 291 280 275 275 257 248 224 220 211
352 7 358 346 339 347 333 331 330 325 316 312 307 306 305 297 303 293 301 297 288 294 301 300 296 264 287 278 142 259 321 316 314 310 289 281 277 275 242 232 214 220 218
357 352 357 347 336 336 331 329 328 323 319 314 311 306 302 307 308 313 312 292 274 292 282 269 246 287 297 328 338 330 301 274 294 313 289 280 275 266 294 266 235 214 221